Flag for Canada Weather past 2 weeks in Nanaimo, British Columbia, Canada

Now
61 °F

Cool.


Feels Like: 61 °F
Forecast: 56 / 67 °F
Wind: 9 mph from Northwest

Location: Entrance Island

Current Time: Aug 31, 2014 at 12:08:31 AM

Latest Report: Aug 30, 2014 at 11:00 PM


Visibility: N/A

Pressure: 29.92 "Hg

Humidity: 77%

Dew point: 54 °F

Location of NanaimoLocation

Historic Weather in Nanaimo — Graph

°F

Nanaimo temperature yesterday

Maximum temperature yesterday: 65 °F (at 4:00 PM)
Minimum temperature yesterday: 61 °F (at 5:00 AM)
Average temperature yesterday: 62 °F

Past Weeks' High & Low Weather Summary

 TemperatureHumidityPressure
High74 °F (Aug 26, 6:00 PM)91% (Aug 15, 11:00 PM)30.15 "Hg (Aug 15, 11:00 PM)
Low61 °F (Aug 30, 5:00 AM)53% (Aug 25, 10:00 PM)29.75 "Hg (Aug 19, 8:00 PM)
Average66 °F74%29.98 "Hg
* Reported Aug 15 10:00 PM — Aug 30 10:00 PM, Nanaimo, Weather by CustomWeather, © 2014

Note: Actual official high and low records may vary slightly from our data, if they occured in-between our weather recording intervals... More about our weather records

Advertising

Nanaimo weather history for previous 24 hours

 ConditionsComfort  
Time TempWeatherWind HumidityBarometerVisibility
10:00 PM
Aug 30
61 °FCool.10 mph79%29.91 "HgN/A
9:00 PM61 °FCool.8 mph81%29.90 "HgN/A
8:00 PM62 °FCool.15 mph82%29.89 "HgN/A
7:00 PM63 °FMild.3 mph77%29.87 "HgN/A
6:00 PM62 °FMild.8 mph81%29.86 "HgN/A
5:00 PM64 °FMild.9 mph73%29.86 "HgN/A
4:00 PM65 °FMild.8 mph66%29.86 "HgN/A
3:00 PM64 °FMild.9 mph63%29.87 "HgN/A
2:00 PM64 °FMild.8 mph66%29.88 "HgN/A
1:00 PM62 °FMild.13 mph79%29.88 "HgN/A
12:00 PM62 °FCool.10 mph77%29.88 "HgN/A
11:00 AM62 °FMild.13 mph77%29.88 "HgN/A
10:00 AM62 °FMild.12 mph78%29.87 "HgN/A
9:00 AM63 °FMild.8 mph73%29.87 "HgN/A
8:00 AM62 °FCool.10 mph77%29.87 "HgN/A
7:00 AM61 °FCool.10 mph78%29.87 "HgN/A
6:00 AM61 °FCool.9 mph83%29.87 "HgN/A
5:00 AM61 °FCool.7 mph83%29.87 "HgN/A
4:00 AM62 °FCool.8 mph70%29.88 "HgN/A
3:00 AM62 °FCool.7 mph75%29.88 "HgN/A
2:00 AM62 °FCool.9 mph83%29.89 "HgN/A
1:00 AM62 °FMild.14 mph82%29.90 "HgN/A
12:00 AM63 °FMild.14 mph80%29.90 "HgN/A
Weather by CustomWeather, © 2014

See weather overviewHow to use our weather pages